DAL1433 KMSP-KDTW

Flight info

Callsign DAL1433
Flight time 1h 17m
Altitude 41000
Route COULT7 DLL PORZL RKCTY2
Aircraft A359/H-SDE2E3GHIJ3J4J5LM1ORWXY/LB1D1

Departure

Time 2026-05-03 22:10
Airport Minneapolis–Saint Paul International Airport / Wold–Chamberlain Field (KMSP)

Arrival

Time 2026-05-03 23:27
Airport Detroit Metropolitan Wayne County Airport (KDTW)
Time Latitude Longitude Altitude Speed Heading
2026-05-03 21:35 44.88089 -93.21143 854 ft 0 kts 35°
2026-05-03 21:57 44.88086 -93.21146 854 ft 2 kts 35°
2026-05-03 21:57 44.88080 -93.21152 854 ft 2 kts 35°
2026-05-03 21:58 44.88071 -93.21161 854 ft 2 kts 35°
2026-05-03 21:58 44.88058 -93.21174 854 ft 2 kts 35°
2026-05-03 21:58 44.88046 -93.21186 854 ft 2 kts 35°
2026-05-03 21:58 44.88034 -93.21198 854 ft 2 kts 45°
2026-05-03 21:59 44.88025 -93.21216 854 ft 2 kts 64°
2026-05-03 21:59 44.88019 -93.21236 854 ft 2 kts 80°
2026-05-03 21:59 44.88018 -93.21257 854 ft 2 kts 85°
2026-05-03 21:59 44.88017 -93.21271 854 ft 2 kts 83°
2026-05-03 22:00 44.88014 -93.21296 854 ft 2 kts 85°
2026-05-03 22:00 44.88014 -93.21317 854 ft 2 kts 96°
2026-05-03 22:00 44.88016 -93.21332 854 ft 2 kts 101°
2026-05-03 22:00 44.88019 -93.21350 854 ft 2 kts 108°
2026-05-03 22:01 44.88024 -93.21369 854 ft 2 kts 115°
2026-05-03 22:01 44.88028 -93.21382 854 ft 1 kts 121°
2026-05-03 22:01 44.88030 -93.21385 854 ft 0 kts 121°
2026-05-03 22:03 44.88028 -93.21380 854 ft 2 kts 121°
2026-05-03 22:04 44.88015 -93.21350 854 ft 5 kts 121°
2026-05-03 22:04 44.87994 -93.21299 854 ft 7 kts 121°
2026-05-03 22:04 44.87969 -93.21240 854 ft 8 kts 121°
2026-05-03 22:04 44.87943 -93.21181 854 ft 9 kts 121°
2026-05-03 22:05 44.87908 -93.21099 854 ft 10 kts 121°
2026-05-03 22:05 44.87869 -93.21010 854 ft 10 kts 122°
2026-05-03 22:05 44.87853 -93.20972 854 ft 9 kts 122°
2026-05-03 22:05 44.87816 -93.20887 854 ft 8 kts 121°
2026-05-03 22:06 44.87796 -93.20842 854 ft 9 kts 121°
2026-05-03 22:06 44.87751 -93.20737 854 ft 10 kts 121°
2026-05-03 22:06 44.87712 -93.20647 854 ft 11 kts 121°
2026-05-03 22:06 44.87668 -93.20546 854 ft 13 kts 122°
2026-05-03 22:07 44.87620 -93.20435 854 ft 13 kts 121°
2026-05-03 22:07 44.87577 -93.20338 854 ft 11 kts 122°
2026-05-03 22:07 44.87552 -93.20280 854 ft 10 kts 121°
2026-05-03 22:07 44.87512 -93.20188 854 ft 7 kts 122°
2026-05-03 22:08 44.87491 -93.20139 854 ft 5 kts 121°
2026-05-03 22:08 44.87474 -93.20105 854 ft 4 kts 133°
2026-05-03 22:08 44.87445 -93.20084 854 ft 5 kts 172°
2026-05-03 22:08 44.87405 -93.20099 854 ft 6 kts 211°
2026-05-03 22:09 44.87381 -93.20153 854 ft 7 kts 267°
2026-05-03 22:09 44.87414 -93.20255 854 ft 22 kts 301°
2026-05-03 22:09 44.87513 -93.20486 854 ft 65 kts 301°
2026-05-03 22:10 44.88636 -93.23086 1118 ft 176 kts 302°
2026-05-03 22:10 44.89326 -93.24469 1964 ft 173 kts 313°
2026-05-03 22:10 44.90176 -93.25591 2774 ft 170 kts 317°
2026-05-03 22:10 44.91076 -93.26702 3398 ft 177 kts 319°
2026-05-03 22:11 44.92050 -93.27792 4061 ft 182 kts 322°
2026-05-03 22:11 44.93090 -93.28793 4747 ft 186 kts 329°
2026-05-03 22:11 44.94351 -93.29329 5298 ft 202 kts 355°
2026-05-03 22:11 44.95788 -93.28788 5644 ft 236 kts 28°
2026-05-03 22:12 44.96952 -93.26985 6102 ft 267 kts 61°
2026-05-03 22:12 44.97348 -93.24331 6574 ft 294 kts 92°
2026-05-03 22:12 44.96706 -93.21577 7348 ft 305 kts 123°
2026-05-03 22:12 44.95372 -93.19244 8182 ft 311 kts 131°
2026-05-03 22:13 44.93996 -93.16907 9063 ft 314 kts 127°
2026-05-03 22:13 44.92747 -93.14401 9899 ft 317 kts 122°
2026-05-03 22:13 44.91609 -93.11728 10625 ft 325 kts 118°
2026-05-03 22:13 44.90515 -93.08847 11109 ft 340 kts 116°
2026-05-03 22:14 44.89654 -93.06428 11563 ft 350 kts 115°
2026-05-03 22:14 44.88588 -93.03332 12304 ft 356 kts 115°
2026-05-03 22:14 44.87521 -93.00186 13086 ft 360 kts 115°
2026-05-03 22:14 44.86448 -92.97001 13848 ft 364 kts 115°
2026-05-03 22:15 44.85367 -92.93789 14587 ft 368 kts 115°
2026-05-03 22:15 44.84280 -92.90556 15307 ft 372 kts 115°
2026-05-03 22:15 44.83165 -92.87245 16031 ft 375 kts 116°
2026-05-03 22:15 44.82044 -92.83928 16733 ft 379 kts 116°
2026-05-03 22:16 44.80911 -92.80580 17410 ft 383 kts 116°
2026-05-03 22:16 44.79765 -92.77193 18071 ft 387 kts 116°
2026-05-03 22:16 44.78609 -92.73784 18718 ft 391 kts 116°
2026-05-03 22:16 44.77439 -92.70333 19352 ft 395 kts 116°
2026-05-03 22:17 44.76255 -92.66847 19977 ft 399 kts 116°
2026-05-03 22:17 44.75048 -92.63297 20596 ft 403 kts 116°
2026-05-03 22:17 44.73840 -92.59750 21222 ft 406 kts 116°
2026-05-03 22:17 44.72619 -92.56171 21824 ft 410 kts 116°
2026-05-03 22:18 44.71375 -92.52571 22404 ft 413 kts 117°
2026-05-03 22:18 44.69993 -92.49035 22971 ft 417 kts 121°
2026-05-03 22:18 44.68431 -92.45614 23524 ft 420 kts 126°
2026-05-03 22:18 44.66739 -92.42279 24062 ft 423 kts 127°
2026-05-03 22:19 44.65000 -92.38921 24592 ft 426 kts 127°
2026-05-03 22:19 44.63259 -92.35563 25102 ft 430 kts 127°
2026-05-03 22:19 44.61524 -92.32198 25583 ft 433 kts 128°
2026-05-03 22:19 44.59762 -92.28766 26055 ft 436 kts 128°
2026-05-03 22:20 44.57994 -92.25326 26512 ft 439 kts 128°
2026-05-03 22:20 44.56208 -92.21857 26960 ft 442 kts 128°
2026-05-03 22:20 44.54408 -92.18367 27391 ft 445 kts 128°
2026-05-03 22:20 44.52582 -92.14830 27805 ft 448 kts 128°
2026-05-03 22:21 44.50756 -92.11297 28207 ft 451 kts 128°
2026-05-03 22:21 44.48917 -92.07746 28602 ft 454 kts 128°
2026-05-03 22:21 44.47064 -92.04175 28989 ft 457 kts 128°
2026-05-03 22:21 44.45197 -92.00583 29366 ft 459 kts 128°
2026-05-03 22:22 44.43318 -91.96976 29730 ft 462 kts 128°
2026-05-03 22:22 44.41434 -91.93360 30081 ft 464 kts 128°
2026-05-03 22:22 44.39516 -91.89681 30420 ft 467 kts 128°
2026-05-03 22:22 44.37669 -91.85957 30797 ft 469 kts 124°
2026-05-03 22:23 44.35996 -91.82122 31467 ft 462 kts 121°
2026-05-03 22:23 44.34481 -91.78219 32059 ft 458 kts 119°
2026-05-03 22:23 44.33003 -91.74301 32444 ft 458 kts 118°
2026-05-03 22:23 44.31522 -91.70369 32744 ft 460 kts 118°
2026-05-03 22:24 44.30031 -91.66423 33026 ft 463 kts 119°
2026-05-03 22:24 44.28517 -91.62434 33310 ft 465 kts 119°
2026-05-03 22:24 44.27004 -91.58462 33588 ft 467 kts 119°
2026-05-03 22:24 44.25482 -91.54475 33859 ft 469 kts 119°
2026-05-03 22:25 44.23951 -91.50474 34120 ft 471 kts 119°
2026-05-03 22:25 44.22412 -91.46460 34381 ft 473 kts 119°
2026-05-03 22:25 44.20860 -91.42417 34642 ft 475 kts 119°
2026-05-03 22:25 44.19305 -91.38372 34897 ft 476 kts 119°
2026-05-03 22:26 44.17749 -91.34332 35148 ft 478 kts 120°
2026-05-03 22:26 44.16176 -91.30241 35382 ft 479 kts 120°
2026-05-03 22:26 44.14609 -91.26167 35604 ft 481 kts 120°
2026-05-03 22:26 44.13031 -91.22073 35821 ft 483 kts 120°
2026-05-03 22:27 44.11444 -91.17970 36034 ft 484 kts 120°
2026-05-03 22:27 44.09857 -91.13866 36236 ft 486 kts 120°
2026-05-03 22:27 44.08255 -91.09732 36418 ft 488 kts 121°
2026-05-03 22:27 44.06638 -91.05569 36589 ft 490 kts 121°
2026-05-03 22:28 44.05027 -91.01430 36761 ft 492 kts 121°
2026-05-03 22:28 44.03403 -90.97264 36935 ft 493 kts 122°
2026-05-03 22:28 44.01768 -90.93084 37105 ft 495 kts 122°
2026-05-03 22:28 44.00126 -90.88902 37266 ft 496 kts 122°
2026-05-03 22:29 43.98478 -90.84704 37426 ft 498 kts 122°
2026-05-03 22:29 43.96826 -90.80499 37578 ft 499 kts 122°
2026-05-03 22:29 43.95157 -90.76259 37734 ft 501 kts 122°
2026-05-03 22:29 43.93495 -90.72036 37935 ft 501 kts 122°
2026-05-03 22:30 43.91834 -90.67826 38153 ft 500 kts 122°
2026-05-03 22:30 43.90171 -90.63615 38360 ft 500 kts 122°
2026-05-03 22:30 43.88511 -90.59436 38547 ft 500 kts 122°
2026-05-03 22:30 43.86837 -90.55253 38727 ft 500 kts 122°
2026-05-03 22:31 43.85159 -90.51058 38896 ft 500 kts 122°
2026-05-03 22:31 43.83470 -90.46827 39048 ft 500 kts 122°
2026-05-03 22:31 43.81798 -90.42636 39186 ft 501 kts 122°
2026-05-03 22:31 43.80119 -90.38426 39312 ft 502 kts 122°
2026-05-03 22:32 43.78445 -90.34237 39436 ft 503 kts 122°
2026-05-03 22:32 43.76764 -90.30016 39552 ft 503 kts 122°
2026-05-03 22:32 43.75080 -90.25790 39663 ft 504 kts 122°
2026-05-03 22:32 43.73391 -90.21564 39765 ft 505 kts 122°
2026-05-03 22:33 43.71687 -90.17314 39863 ft 505 kts 122°
2026-05-03 22:33 43.68282 -90.08851 40053 ft 507 kts 122°
2026-05-03 22:34 43.64859 -90.00379 40244 ft 508 kts 122°
2026-05-03 22:34 43.61419 -89.91893 40380 ft 510 kts 122°
2026-05-03 22:35 43.58023 -89.83289 40568 ft 512 kts 119°
2026-05-03 22:35 43.55234 -89.74276 40727 ft 516 kts 111°
2026-05-03 22:36 43.53235 -89.64799 40751 ft 519 kts 104°
2026-05-03 22:36 43.51738 -89.55080 40754 ft 519 kts 103°
2026-05-03 22:37 43.50256 -89.45391 40754 ft 519 kts 103°
2026-05-03 22:37 43.48744 -89.35726 40756 ft 519 kts 103°
2026-05-03 22:38 43.47218 -89.26048 40759 ft 519 kts 104°
2026-05-03 22:38 43.45677 -89.16360 40763 ft 519 kts 104°
2026-05-03 22:39 43.44127 -89.06702 40763 ft 519 kts 104°
2026-05-03 22:39 43.42574 -88.97052 40763 ft 519 kts 104°
2026-05-03 22:40 43.41005 -88.87357 40764 ft 521 kts 105°
2026-05-03 22:40 43.39425 -88.77666 40763 ft 522 kts 106°
2026-05-03 22:41 43.37831 -88.67991 40762 ft 522 kts 106°
2026-05-03 22:41 43.36227 -88.58302 40763 ft 522 kts 106°
2026-05-03 22:42 43.34612 -88.48583 40763 ft 522 kts 106°
2026-05-03 22:42 43.32996 -88.38915 40763 ft 522 kts 106°
2026-05-03 22:43 43.31375 -88.29243 40763 ft 522 kts 107°
2026-05-03 22:43 43.29744 -88.19555 40764 ft 521 kts 107°
2026-05-03 22:44 43.28107 -88.09903 40766 ft 521 kts 107°
2026-05-03 22:44 43.26459 -88.00255 40768 ft 522 kts 107°
2026-05-03 22:45 43.24806 -87.90619 40770 ft 521 kts 107°
2026-05-03 22:45 43.23133 -87.80937 40773 ft 521 kts 107°
2026-05-03 22:46 43.21463 -87.71317 40775 ft 521 kts 107°
2026-05-03 22:46 43.19785 -87.61704 40776 ft 521 kts 107°
2026-05-03 22:47 43.18092 -87.52050 40774 ft 521 kts 107°
2026-05-03 22:47 43.16399 -87.42455 40775 ft 521 kts 107°
2026-05-03 22:48 43.14698 -87.32856 40775 ft 521 kts 107°
2026-05-03 22:48 43.12992 -87.23244 40781 ft 521 kts 107°
2026-05-03 22:49 43.11233 -87.13404 40510 ft 521 kts 107°
2026-05-03 22:49 43.10358 -87.08539 39691 ft 528 kts 108°
2026-05-03 22:49 43.09469 -87.03603 38788 ft 533 kts 108°
2026-05-03 22:49 43.08572 -86.98627 37991 ft 536 kts 108°
2026-05-03 22:50 43.07673 -86.93660 37301 ft 535 kts 109°
2026-05-03 22:50 43.06780 -86.88710 36843 ft 530 kts 109°
2026-05-03 22:50 43.05887 -86.83793 36422 ft 524 kts 109°
2026-05-03 22:50 43.05006 -86.78979 35985 ft 519 kts 109°
2026-05-03 22:51 43.04125 -86.74187 35537 ft 514 kts 109°
2026-05-03 22:51 43.03254 -86.69464 35072 ft 510 kts 109°
2026-05-03 22:51 43.02385 -86.64768 34586 ft 507 kts 109°
2026-05-03 22:51 43.01526 -86.60133 34099 ft 505 kts 109°
2026-05-03 22:52 43.00669 -86.55517 33608 ft 502 kts 109°
2026-05-03 22:52 42.99809 -86.50894 33134 ft 499 kts 109°
2026-05-03 22:52 42.98962 -86.46340 32682 ft 496 kts 109°
2026-05-03 22:52 42.98117 -86.41810 32225 ft 493 kts 109°
2026-05-03 22:53 42.97296 -86.37428 31785 ft 490 kts 109°
2026-05-03 22:53 42.96458 -86.32952 31338 ft 487 kts 110°
2026-05-03 22:53 42.95624 -86.28488 30890 ft 483 kts 110°
2026-05-03 22:53 42.94801 -86.24095 30455 ft 479 kts 110°
2026-05-03 22:54 42.93971 -86.19688 30005 ft 476 kts 110°
2026-05-03 22:54 42.93152 -86.15350 29563 ft 472 kts 110°
2026-05-03 22:54 42.92334 -86.11041 29117 ft 469 kts 110°
2026-05-03 22:54 42.91521 -86.06765 28672 ft 466 kts 110°
2026-05-03 22:55 42.90713 -86.02518 28243 ft 463 kts 110°
2026-05-03 22:55 42.89922 -85.98371 27822 ft 459 kts 110°
2026-05-03 22:55 42.89107 -85.94158 27408 ft 456 kts 110°
2026-05-03 22:55 42.88292 -85.89986 26991 ft 452 kts 110°
2026-05-03 22:56 42.87489 -85.85865 26569 ft 450 kts 110°
2026-05-03 22:56 42.86696 -85.81776 26167 ft 446 kts 110°
2026-05-03 22:56 42.85909 -85.77715 25770 ft 443 kts 110°
2026-05-03 22:56 42.85127 -85.73683 25373 ft 439 kts 110°
2026-05-03 22:57 42.84355 -85.69699 24982 ft 436 kts 110°
2026-05-03 22:57 42.83583 -85.65722 24593 ft 433 kts 110°
2026-05-03 22:57 42.82804 -85.61721 24190 ft 429 kts 110°
2026-05-03 22:57 42.82039 -85.57791 23795 ft 426 kts 110°
2026-05-03 22:58 42.81283 -85.53924 23413 ft 423 kts 110°
2026-05-03 22:58 42.80529 -85.50073 23033 ft 419 kts 110°
2026-05-03 22:58 42.79780 -85.46252 22644 ft 416 kts 110°
2026-05-03 22:58 42.79036 -85.42467 22253 ft 414 kts 111°
2026-05-03 22:59 42.78298 -85.38718 21874 ft 410 kts 111°
2026-05-03 22:59 42.77554 -85.34944 21491 ft 407 kts 111°
2026-05-03 22:59 42.76996 -85.32104 21196 ft 405 kts 111°
2026-05-03 22:59 42.76128 -85.27692 20728 ft 401 kts 111°
2026-05-03 23:00 42.75410 -85.24053 20343 ft 398 kts 111°
2026-05-03 23:00 42.74694 -85.20442 19956 ft 395 kts 111°
2026-05-03 23:00 42.73982 -85.16863 19566 ft 392 kts 111°
2026-05-03 23:00 42.73273 -85.13317 19176 ft 389 kts 111°
2026-05-03 23:01 42.72548 -85.09705 18774 ft 387 kts 111°
2026-05-03 23:01 42.71822 -85.06086 18367 ft 384 kts 110°
2026-05-03 23:01 42.71108 -85.02533 17969 ft 382 kts 110°
2026-05-03 23:01 42.70397 -84.98997 17569 ft 379 kts 110°
2026-05-03 23:02 42.69702 -84.95547 17178 ft 377 kts 109°
2026-05-03 23:02 42.68991 -84.92015 16789 ft 374 kts 109°
2026-05-03 23:02 42.68378 -84.88580 16406 ft 375 kts 102°
2026-05-03 23:02 42.68136 -84.85037 16034 ft 374 kts 96°
2026-05-03 23:03 42.68030 -84.81487 15655 ft 372 kts 95°
2026-05-03 23:03 42.67933 -84.77997 15281 ft 370 kts 95°
2026-05-03 23:03 42.67813 -84.74507 14904 ft 368 kts 95°
2026-05-03 23:03 42.67669 -84.70956 14518 ft 366 kts 96°
2026-05-03 23:04 42.67513 -84.67539 14144 ft 364 kts 96°
2026-05-03 23:04 42.67349 -84.64129 13770 ft 362 kts 96°
2026-05-03 23:04 42.67181 -84.60715 13392 ft 360 kts 96°
2026-05-03 23:04 42.67011 -84.57338 13017 ft 358 kts 96°
2026-05-03 23:05 42.66840 -84.53973 12641 ft 356 kts 96°
2026-05-03 23:05 42.66668 -84.50628 12266 ft 355 kts 96°
2026-05-03 23:05 42.66495 -84.47302 11891 ft 353 kts 96°
2026-05-03 23:05 42.66322 -84.43980 11514 ft 351 kts 96°
2026-05-03 23:06 42.66147 -84.40644 11134 ft 349 kts 96°
2026-05-03 23:06 42.65974 -84.37352 10757 ft 347 kts 96°
2026-05-03 23:06 42.65803 -84.34121 10453 ft 341 kts 97°
2026-05-03 23:06 42.65638 -84.30968 10136 ft 328 kts 97°
2026-05-03 23:07 42.65479 -84.27961 9894 ft 318 kts 97°
2026-05-03 23:07 42.65315 -84.24978 9640 ft 316 kts 97°
2026-05-03 23:07 42.65154 -84.22023 9391 ft 314 kts 97°
2026-05-03 23:07 42.64991 -84.19083 9142 ft 312 kts 97°
2026-05-03 23:08 42.64829 -84.16140 8890 ft 310 kts 97°
2026-05-03 23:08 42.64668 -84.13234 8640 ft 309 kts 97°
2026-05-03 23:08 42.64507 -84.10327 8390 ft 309 kts 97°
2026-05-03 23:08 42.64347 -84.07439 8141 ft 307 kts 97°
2026-05-03 23:09 42.64187 -84.04565 7992 ft 306 kts 97°
2026-05-03 23:09 42.64025 -84.01695 7986 ft 307 kts 97°
2026-05-03 23:09 42.63861 -83.98811 7982 ft 307 kts 97°
2026-05-03 23:09 42.63697 -83.95903 7981 ft 308 kts 97°
2026-05-03 23:10 42.63535 -83.93023 7979 ft 307 kts 97°
2026-05-03 23:10 42.63371 -83.90138 7978 ft 308 kts 97°
2026-05-03 23:10 42.63205 -83.87246 7979 ft 308 kts 97°
2026-05-03 23:10 42.63039 -83.84359 7979 ft 308 kts 97°
2026-05-03 23:11 42.62873 -83.81477 7979 ft 308 kts 97°
2026-05-03 23:11 42.62706 -83.78581 7979 ft 308 kts 97°
2026-05-03 23:11 42.62537 -83.75673 7978 ft 308 kts 97°
2026-05-03 23:11 42.62368 -83.72794 7978 ft 307 kts 97°
2026-05-03 23:12 42.62196 -83.69907 7978 ft 308 kts 97°
2026-05-03 23:12 42.62025 -83.67015 7978 ft 309 kts 97°
2026-05-03 23:12 42.61855 -83.64118 7979 ft 309 kts 97°
2026-05-03 23:12 42.61682 -83.61225 7977 ft 308 kts 97°
2026-05-03 23:13 42.61509 -83.58327 7977 ft 309 kts 97°
2026-05-03 23:13 42.61333 -83.55400 7978 ft 309 kts 97°
2026-05-03 23:13 42.61157 -83.52499 7979 ft 309 kts 97°
2026-05-03 23:13 42.60983 -83.49610 7978 ft 308 kts 97°
2026-05-03 23:14 42.60806 -83.46711 7976 ft 309 kts 97°
2026-05-03 23:14 42.60688 -83.44783 7975 ft 309 kts 97°
2026-05-03 23:14 42.60451 -83.40914 7975 ft 309 kts 97°
2026-05-03 23:14 42.60272 -83.38022 7975 ft 308 kts 97°
2026-05-03 23:15 42.60092 -83.35097 7975 ft 309 kts 97°
2026-05-03 23:15 42.59913 -83.32208 7970 ft 308 kts 97°
2026-05-03 23:15 42.59733 -83.29315 7971 ft 309 kts 97°
2026-05-03 23:15 42.59551 -83.26412 7971 ft 309 kts 97°
2026-05-03 23:16 42.59369 -83.23521 7970 ft 309 kts 97°
2026-05-03 23:16 42.59185 -83.20623 7968 ft 307 kts 97°
2026-05-03 23:16 42.59009 -83.17809 7964 ft 294 kts 97°
2026-05-03 23:16 42.58838 -83.15102 7965 ft 280 kts 98°
2026-05-03 23:17 42.58530 -83.12592 7945 ft 261 kts 120°
2026-05-03 23:17 42.57455 -83.10858 7950 ft 227 kts 160°
2026-05-03 23:17 42.56040 -83.10479 7788 ft 201 kts 197°
2026-05-03 23:17 42.54796 -83.11156 7534 ft 192 kts 216°
2026-05-03 23:18 42.53670 -83.12114 7276 ft 192 kts 217°
2026-05-03 23:18 42.52541 -83.13054 7027 ft 192 kts 215°
2026-05-03 23:18 42.51386 -83.13974 6780 ft 192 kts 215°
2026-05-03 23:18 42.50235 -83.14864 6559 ft 190 kts 213°
2026-05-03 23:19 42.49091 -83.15730 6359 ft 187 kts 214°
2026-05-03 23:19 42.47963 -83.16576 6163 ft 184 kts 213°
2026-05-03 23:19 42.46853 -83.17401 5966 ft 181 kts 213°
2026-05-03 23:19 42.45761 -83.18218 5769 ft 178 kts 213°
2026-05-03 23:20 42.44688 -83.19013 5572 ft 175 kts 213°
2026-05-03 23:20 42.43623 -83.19802 5374 ft 172 kts 213°
2026-05-03 23:20 42.42596 -83.20585 5187 ft 168 kts 215°
2026-05-03 23:20 42.41604 -83.21348 4958 ft 163 kts 214°
2026-05-03 23:21 42.40631 -83.22090 4696 ft 160 kts 214°
2026-05-03 23:21 42.39736 -83.22761 4447 ft 157 kts 213°
2026-05-03 23:21 42.38751 -83.23497 4170 ft 154 kts 213°
2026-05-03 23:21 42.37819 -83.24186 3924 ft 151 kts 213°
2026-05-03 23:22 42.36020 -83.25508 3374 ft 143 kts 213°
2026-05-03 23:22 42.35175 -83.26128 3185 ft 138 kts 213°
2026-05-03 23:22 42.34338 -83.26744 3019 ft 136 kts 213°
2026-05-03 23:23 42.33526 -83.27341 2852 ft 129 kts 213°
2026-05-03 23:23 42.32748 -83.27913 2683 ft 129 kts 212°
2026-05-03 23:23 42.31961 -83.28493 2521 ft 130 kts 212°
2026-05-03 23:23 42.31177 -83.29068 2366 ft 128 kts 212°
2026-05-03 23:24 42.30663 -83.29446 2249 ft 128 kts 212°
2026-05-03 23:24 42.30191 -83.29796 2162 ft 128 kts 211°
2026-05-03 23:24 42.29521 -83.30287 2022 ft 128 kts 212°
2026-05-03 23:24 42.28745 -83.30856 1862 ft 125 kts 212°
2026-05-03 23:25 42.27978 -83.31421 1710 ft 126 kts 212°
2026-05-03 23:25 42.27221 -83.31980 1544 ft 125 kts 211°
2026-05-03 23:25 42.26466 -83.32526 1376 ft 124 kts 210°
2026-05-03 23:25 42.25705 -83.33070 1245 ft 123 kts 211°
2026-05-03 23:26 42.24960 -83.33622 1066 ft 122 kts 211°
2026-05-03 23:26 42.24463 -83.33991 954 ft 122 kts 211°
2026-05-03 23:26 42.23478 -83.34727 761 ft 121 kts 210°
2026-05-03 23:26 42.22752 -83.35264 655 ft 113 kts 211°
2026-05-03 23:27 42.22185 -83.35693 648 ft 69 kts 208°
2026-05-03 23:27 42.21929 -83.35876 647 ft 16 kts 208°
2026-05-03 23:27 42.21839 -83.35944 647 ft 15 kts 210°
2026-05-03 23:27 42.21746 -83.36011 647 ft 15 kts 208°
2026-05-03 23:28 42.21652 -83.36079 647 ft 16 kts 206°
2026-05-03 23:28 42.21544 -83.36130 647 ft 17 kts 194°
2026-05-03 23:28 42.21438 -83.36144 647 ft 9 kts 180°
2026-05-03 23:28 42.21404 -83.36143 647 ft 5 kts 179°
2026-05-03 23:29 42.21365 -83.36142 647 ft 6 kts 176°
2026-05-03 23:29 42.21319 -83.36124 647 ft 7 kts 154°
2026-05-03 23:29 42.21307 -83.36068 647 ft 8 kts 63°
2026-05-03 23:29 42.21358 -83.36021 647 ft 10 kts 29°
2026-05-03 23:30 42.21425 -83.35970 647 ft 12 kts 29°
2026-05-03 23:30 42.21487 -83.35927 647 ft 8 kts 27°
2026-05-03 23:30 42.21520 -83.35898 647 ft 9 kts 42°
2026-05-03 23:30 42.21543 -83.35775 647 ft 12 kts 89°
2026-05-03 23:31 42.21537 -83.35670 647 ft 11 kts 109°
2026-05-03 23:31 42.21510 -83.35572 647 ft 11 kts 117°
2026-05-03 23:31 42.21452 -83.35539 647 ft 10 kts 201°
2026-05-03 23:31 42.21390 -83.35586 647 ft 10 kts 210°
2026-05-03 23:32 42.21332 -83.35630 647 ft 9 kts 209°
2026-05-03 23:32 42.21276 -83.35672 647 ft 9 kts 210°
2026-05-03 23:32 42.21240 -83.35699 647 ft 9 kts 207°
2026-05-03 23:32 42.21195 -83.35711 647 ft 2 kts 166°
2026-05-03 23:33 42.21184 -83.35704 647 ft 2 kts 150°
2026-05-03 23:33 42.21176 -83.35694 647 ft 2 kts 131°
2026-05-03 23:33 42.21164 -83.35660 647 ft 3 kts 116°
2026-05-03 23:33 42.21157 -83.35641 647 ft 2 kts 118°
2026-05-03 23:34 42.21156 -83.35639 647 ft 0 kts 118°